Location: Aldenham
(51.6667°N, 0.3500°W)
Time: 06:53:36
(UTC+00:00)

CZ-4C R/B - Pass Details

Date: 18 November 2025
Orbit: 487 x 1492 km, 63.4° (Epoch: 10 December)

Event Time Altitude Azimuth Distance (km) Brightness Sun altitude
Rises 20:32:18 0° 307° (NW) 3,368 6.1 -40.4°
Reaches altitude 10° 20:34:42 10° 316° (NW) 2,576 5.3 -40.7°
Enters shadow 20:36:59 23° 332° (NNW) 1,946 4.4 -41.0°
